星链-31688 (STARLINK-31688 )

导读

STARLINK-31688是美国太空探索技术公司SpaceX星链互联网卫星星座的成员,于2024年4月2日由SpaceX发射入轨。星链项目旨在为全球提供高速低延迟卫星互联网服务,该卫星继承了星链星座批量生产、部署的特点,是星链持续扩张低轨卫星互联网覆盖、推进全球组网进程中的一颗标准卫星,服务于星座整体运营。

基本信息
目录编号:
59386
目录名称:
STARLINK-31688
国际标识:
2024-062N
轨道中心:
EARTH
卫星名称:
星链-31688
卫星全名:
星链-31688 (STARLINK-31688 )
卫星状态:
在轨 (已飞行807 天)
发射日期:
2024-04-02 UTC
国别 :
美国 (US)
星等 :
--
轨道信息
数据来源 国际轨道数据 AOE轨道数据
星历时间 2026-06-17T13:59:08+0800
21小时前
查看轨道信息
2026-06-16T01:00:00+0800
2天前
查看轨道信息
半长轴 6840.86km 6840.866km
偏心率 0.0001265 0.0001386
轨道倾角 53.160° 53.155°
近地点辐角 88.597° 79.173°
升交点赤经 154.703° 161.907°
平近点角 271.517° 43.614°
近地点 461.857km 461.78km
远地点 463.589km 463.678km
周期 93.848分钟 93.848分钟
每日圈数 15.343935 15.343916
详细信息
固有亮度:
5
最大亮度:
0.3
卫星平台:
Starlink v2.0 mini
覆盖范围:
全球
运营商:
太空探索技术公司
运营商所在国:
美国
制造商(研发单位):
太空探索技术公司
制造商所在国:
美国
使用方式:
暂无
卫星简介
星链(Starlink)计划是由太空探索技术公司(SpaceX)提出的一个巨型低轨卫星互联网星座项目,计划在2019年至2024年间在太空搭建由约1.2万颗卫星组成的“星链”网络,其中1584颗将部署在地球上空550千米处的近地轨道,并从2020年开始工作。该卫星仍在工作。
2D轨道图
3D轨道图
轨道高度分析图
轨道倾角分析图
轨道综合分析图
查看轨道综合分析图